TimePDT,TemperatureF,Dew PointF,Humidity,Sea Level PressureIn,VisibilityMPH,Wind Direction,Wind SpeedMPH,Gust SpeedMPH,PrecipitationIn,Events,Conditions,WindDirDegrees,DateUTC
12:53 AM,64.9,59.0,81,29.87,5.0,Calm,Calm,-,N/A,,Haze,0,2013-08-25 07:53:00
1:02 AM,64.4,59.0,83,29.87,5.0,SSW,3.5,-,N/A,,Haze,210,2013-08-25 08:02:00
1:25 AM,64.4,59.0,83,29.87,4.0,Calm,Calm,-,N/A,,Haze,0,2013-08-25 08:25:00
1:44 AM,64.4,59.0,83,29.86,4.0,Calm,Calm,-,N/A,,Haze,0,2013-08-25 08:44:00
1:53 AM,64.9,59.0,81,29.86,4.0,Calm,Calm,-,N/A,,Haze,0,2013-08-25 08:53:00
2:53 AM,64.9,60.1,84,29.86,4.0,South,3.5,-,N/A,,Haze,170,2013-08-25 09:53:00
3:53 AM,64.9,59.0,81,29.85,3.0,Calm,Calm,-,N/A,,Haze,0,2013-08-25 10:53:00
4:53 AM,64.9,59.0,81,29.85,3.0,NW,3.5,-,N/A,,Haze,310,2013-08-25 11:53:00
5:53 AM,64.9,59.0,81,29.86,3.0,West,3.5,-,N/A,,Haze,270,2013-08-25 12:53:00
6:38 AM,64.4,59.0,83,29.87,2.0,WNW,3.5,-,N/A,,Haze,290,2013-08-25 13:38:00
6:46 AM,64.4,59.0,83,29.88,1.8,Calm,Calm,-,N/A,,Haze,0,2013-08-25 13:46:00
6:53 AM,64.0,59.0,84,29.88,1.8,Calm,Calm,-,N/A,,Haze,0,2013-08-25 13:53:00
7:30 AM,64.4,59.0,83,29.89,2.0,Calm,Calm,-,N/A,,Haze,0,2013-08-25 14:30:00
7:53 AM,66.0,59.0,78,29.89,2.0,Calm,Calm,-,N/A,,Haze,0,2013-08-25 14:53:00
8:53 AM,69.1,59.0,70,29.89,2.5,Variable,3.5,-,N/A,,Haze,0,2013-08-25 15:53:00
9:19 AM,69.8,59.0,68,29.89,3.0,Calm,Calm,-,N/A,,Haze,0,2013-08-25 16:19:00
9:53 AM,73.0,59.0,61,29.89,3.0,Calm,Calm,-,N/A,,Haze,0,2013-08-25 16:53:00
10:53 AM,79.0,59.0,50,29.89,4.0,Variable,3.5,-,N/A,,Haze,0,2013-08-25 17:53:00
11:53 AM,84.0,59.0,43,29.89,5.0,SW,6.9,-,N/A,,Haze,220,2013-08-25 18:53:00
12:53 PM,84.0,57.9,41,29.87,6.0,SW,6.9,-,N/A,,Haze,220,2013-08-25 19:53:00
1:53 PM,86.0,59.0,40,29.86,8.0,Variable,5.8,-,N/A,,Unknown,0,2013-08-25 20:53:00
2:53 PM,88.0,57.0,35,29.85,10.0,SSW,6.9,-,N/A,,Unknown,210,2013-08-25 21:53:00
3:53 PM,91.0,57.0,32,29.83,10.0,Variable,3.5,-,N/A,,Unknown,0,2013-08-25 22:53:00
4:53 PM,88.0,57.9,36,29.83,10.0,SW,6.9,-,N/A,,Clear,220,2013-08-25 23:53:00
5:53 PM,82.9,57.0,41,29.83,10.0,SSW,5.8,-,N/A,,Clear,210,2013-08-26 00:53:00
6:53 PM,81.0,55.0,41,29.85,10.0,SSW,5.8,-,N/A,,Clear,200,2013-08-26 01:53:00
7:53 PM,75.0,57.9,55,29.87,10.0,South,4.6,-,N/A,,Clear,190,2013-08-26 02:53:00
8:53 PM,72.0,59.0,64,29.90,10.0,South,3.5,-,N/A,,Unknown,190,2013-08-26 03:53:00
9:53 PM,71.1,60.1,68,29.91,10.0,Calm,Calm,-,N/A,,Clear,0,2013-08-26 04:53:00
10:53 PM,71.1,60.1,68,29.89,10.0,Calm,Calm,-,N/A,,Clear,0,2013-08-26 05:53:00
11:53 PM,71.1,60.1,68,29.89,10.0,Calm,Calm,-,N/A,,Unknown,0,2013-08-26 06:53:00